Regional Weather Roundup
Issued by NWS

Home | Current Version | Previous Version | Text Only | Print | Product List | Glossary Off
Versions: 1 2 3 4 5 6 7 8 9 10 11 12 13 14 15 16 17 18 19 20 21 22 23 24 25 26 27 28 29 30 31 32 33 34 35 36 37 38 39 40 41 42 43 44 45 46 47 48 49 50

000
ASUS43 KMPX 271001
RWRMN
WEATHER ROUNDUP FOR MINNESOTA
NATIONAL WEATHER SERVICE TWIN CITIES/CHANHASSEN MN
500 AM CDT MON APR 27 2015


NOTE: "FAIR" INDICATES FEW OR NO CLOUDS BELOW 12,000 FEET WITH NO
SIGNIFICANT WEATHER AND/OR OBSTRUCTIONS TO VISIBILITY. N/A MEANS
CURRENT SKY AND/OR WEATHER CONDITIONS ARE NOT AVAILABLE.

MNZ060>063-068>070-271100-
   Twin Cities Metro

CITY           SKY/WX    TMP DP  RH WIND       PRES   REMARKS
TWIN CITIES    CLEAR     40  32  73 N3        30.20S
ST PAUL        CLEAR     42  28  57 CALM      30.21S
CRYSTAL        CLEAR     36  27  69 CALM      30.19F
BLAINE         CLEAR     36  30  80 CALM      30.20F
LAKEVILLE      CLEAR     37  27  65 NW3       30.19S
EDEN PRAIRIE   CLEAR     41  27  57 N3        30.19S
SOUTH ST PAUL  CLEAR     40  28  63 CALM      30.19F
LAKE ELMO      FAIR      32  30  93 CALM      30.20F
$$
MNZ001>005-007-008-013>017-022>024-027-028-271100-
   Northwest Minnesota

CITY           SKY/WX    TMP DP  RH WIND       PRES   REMARKS
BEMIDJI        CLEAR     29  22  76 CALM      30.21R
HALLOCK        MOCLDY    39  19  45 S3        30.18R
ROSEAU         MOCLDY    34  28  80 CALM      30.20R
WARROAD        CLEAR     32  28  86 CALM      30.20S
THIEF RVR FALL PTCLDY    39  21  48 CALM      30.20S
CROOKSTON      MOCLDY    37  25  60 S7        30.20S
FOSSTON        CLEAR     30  21  69 CALM      30.21R
DETROIT LAKES  CLEAR     37  28  70 CALM      30.21F
MOORHEAD       PTCLDY    36  21  55 SE5       30.20F
PARK RAPIDS    CLEAR     32  24  72 CALM      30.20R
MAHNOMEN       FAIR      36  24  61 S6        30.20R
$$
MNZ006-009>011-018-025>026-271100-
   North Central Minnesota

CITY           SKY/WX    TMP DP  RH WIND       PRES   REMARKS
BAUDETTE       CLEAR     30  24  78 SW5       30.20R WCI  25
FLAG ISLAND    CLEAR     39  32  75 CALM      30.19S
INTL FALLS     CLEAR     24  21  88 CALM      30.20R
WASKISH        CLEAR     28  25  86 CALM      30.21R
BIG FORK       CLEAR     25  21  86 CALM      30.21R
LONGVILLE      CLEAR     27  27 100 CALM      30.21R
GRAND RAPIDS   CLEAR     28  18  64 CALM      30.20R
CRANE LAKE     CLEAR     23  21  93 CALM      30.22S
ORR            CLEAR     27  21  80 CALM      30.18R
COOK           CLEAR     25  21  86 CALM      30.20S
WALKER         FAIR      29  24  78 CALM      30.21R
$$
MNZ012-019>021-037-271100-
   Northeast Minnesota

CITY           SKY/WX    TMP DP  RH WIND       PRES   REMARKS
DULUTH         CLEAR     29  23  78 N3        30.19R
ELY            CLEAR     25  23  93 CALM      30.19S
HIBBING        CLEAR     23  18  81 CALM      30.20R
EVELETH        CLEAR     27  23  86 CALM      30.20S
DULUTH HARBOR  CLEAR     34  28  80 SW5       30.22R WCI  30
TWO HARBORS    CLEAR     36  27  69 NW5       30.17S
SILVER BAY     CLEAR     27  23  86 CALM      30.17S
GRAND MARAIS     N/A     42  27  55 N10       30.18S
G MARAIS ARPRT CLEAR     34  23  64 CALM      30.18S
$$
MNZ029>031-032-039>041-046>048-054>057-064-271100-
   West Central Minnesota

CITY           SKY/WX    TMP DP  RH WIND       PRES   REMARKS
FERGUS FALLS   CLEAR     39  27  60 SE3       30.21F
WHEATON        CLEAR     28  21  74 CALM      30.21S
MORRIS         CLEAR     34  27  75 E3        30.19S
ALEXANDRIA     CLEAR     35  30  82 CALM      30.21S
ELBOW LAKE     FAIR      43  31  64 E5        30.19F
WADENA         CLEAR     30  23  74 CALM      30.20F
GLENWOOD       CLEAR     37  27  65 NE3       30.21S
APPLETON       CLEAR     34  28  80 NE3       30.18F
BENSON         CLEAR     28  27  93 CALM      30.20S
ORTONVILLE     CLEAR     36  27  69 N5        30.18F
MADISON        CLEAR     34  23  64 CALM      30.18F
WILLMAR        FAIR      37  28  70 E3        30.21S
$$
MNZ033>034-036-042>043-049>051-058-059-271100-
   Central Minnesota

CITY           SKY/WX    TMP DP  RH WIND       PRES   REMARKS
ST CLOUD       CLEAR     31  24  75 CALM      30.20F
SAUK CENTRE    FAIR      31  29  92 CALM      30.21S
PAYNESVILLE    CLEAR     28  26  90 CALM      30.21S
AITKIN         CLEAR     27  21  80 CALM      30.20R
PINE RIVER     CLEAR     27  23  86 CALM      30.24R
BRAINERD       CLEAR     29  22  75 CALM      30.22R
STAPLES        CLEAR     30  25  80 CALM      30.21S
LONG PRAIRIE   FAIR      32  27  80 CALM      30.21F
LITTLE FALLS   CLEAR     30  27  86 CALM      30.21F
LITCHFIELD     CLEAR     37  32  81 CALM      30.21S
BUFFALO        CLEAR     32  27  80 CALM      30.21S
MAPLE LAKE     CLEAR     32  28  84 CALM      30.21F
$$
MNZ037-044-045-052-053-271100-
   East Central Minnesota

CITY           SKY/WX    TMP DP  RH WIND       PRES   REMARKS
PRINCETON      CLEAR     30  25  80 CALM      30.21F
MORA           CLEAR     27  23  86 CALM      30.23S
CAMBRIDGE      CLEAR     30  23  74 CALM      30.20S
RUSH CITY      CLEAR     30  24  78 CALM      30.21S
MOOSE LAKE     CLEAR     28  23  80 CALM      30.20R
HINCKLEY       FAIR      30  25  80 CALM      30.22R
CLOQUET        CLEAR     27  21  80 NW3       30.20R
MCGREGOR       CLEAR     30  27  86 CALM      30.22R
$$
MNZ071>073-080-081-089-090-097-098-271100-
   Southwest Minnesota

CITY           SKY/WX    TMP DP  RH WIND       PRES   REMARKS
MONTEVIDEO     CLEAR     34  23  64 SE3       30.20F
GRANITE FALLS  CLEAR     32  22  66 CALM      30.21S
CANBY          CLEAR     33  29  83 CALM      30.19F
MARSHALL       CLEAR     34  19  55 W3        30.18F
REDWOOD FALLS  CLEAR     38  22  52 CALM      30.19S
OLIVIA         CLEAR     32  21  64 NE3       30.19S
PIPESTONE      CLEAR     39  21  48 E2        30.17S
WINDOM         CLEAR     37  25  60 CALM      30.17S
WORTHINGTON    CLEAR     32  19  59 N5        30.17S WCI  27
JACKSON        CLEAR     36  23  60 CALM      30.17S
TRACY          CLEAR     37  20  50 CALM      30.18F
SLAYTON        CLEAR     33  21  60 CALM      30.19S
$$
MNZ065>067-074>077-082>085-091>093-271100-
   South Central Minnesota

CITY           SKY/WX    TMP DP  RH WIND       PRES   REMARKS
MANKATO        CLEAR     39  21  48 NE6       30.18S
NEW ULM        CLEAR     39  21  48 NE5       30.19S
ST JAMES       CLEAR     32  21  64 CALM      30.18F
FAIRMONT       CLEAR     36  23  60 N6        30.16S
GLENCOE        CLEAR     34  27  77 CALM      30.19F
FARIBAULT      CLEAR     36  28  75 CALM      30.18S
OWATONNA       CLEAR     32  25  74 CALM      30.17S
WASECA         CLEAR     36  27  69 VRB7      30.18S
ALBERT LEA     CLEAR     37  27  65 N3        30.15F
$$
MNZ078>079-086>088-094>096-271100-
   Southeast Minnesota

CITY           SKY/WX    TMP DP  RH WIND       PRES   REMARKS
ROCHESTER      CLEAR     38  26  62 N7        30.16R
RED WING       CLEAR     34  27  75 CALM      30.18S
STANTON        CLEAR     32  26  78 CALM      30.18S
DODGE CENTER   CLEAR     37  27  65 N7        30.16S
WINONA         CLEAR     37  32  81 NW3       30.17S
AUSTIN         CLEAR     37  28  70 N5        30.15S
PRESTON        CLEAR     37  27  67 N6        30.14S
$$
ABBREVIATIONS USED IN REMARKS
   TC - TEMPERATURES IN CELSIUS
  WCI - WIND CHILL INDEX
   HX - HEAT INDEX
  VSB - VISIBILITY
$$


USA.gov is the U.S. government's official web portal to all federal, state and local government web resources and services.